TimeCEST,TemperatureF,Dew PointF,Humidity,Sea Level PressureIn,VisibilityMPH,Wind Direction,Wind SpeedMPH,Gust SpeedMPH,PrecipitationIn,Events,Conditions,WindDirDegrees,DateUTC
12:00 AM,44.6,39.2,81,30.30,5.6,NE,3.5,-,N/A,,Mostly Cloudy,50,2013-10-06 22:00:00
12:30 AM,46.4,39.2,76,30.30,5.6,NE,3.5,-,N/A,,Mostly Cloudy,50,2013-10-06 22:30:00
1:00 AM,44.6,41.0,87,30.30,5.0,Calm,Calm,-,N/A,,Mostly Cloudy,0,2013-10-06 23:00:00
1:30 AM,46.4,41.0,81,30.30,5.0,Variable,1.2,-,N/A,,Mostly Cloudy,0,2013-10-06 23:30:00
2:00 AM,46,41,77,30.35,5,South,2.2,,,,Mist,180,2013-10-07 00:00:00
2:00 AM,46.4,41.0,81,30.33,5.0,Variable,1.2,-,N/A,,Mostly Cloudy,0,2013-10-07 00:00:00
2:30 AM,46.4,41.0,81,30.30,5.0,Variable,1.2,-,N/A,,Mostly Cloudy,0,2013-10-07 00:30:00
3:00 AM,46.4,42.8,87,30.30,5.0,Variable,1.2,-,N/A,,Overcast,0,2013-10-07 01:00:00
3:30 AM,46.4,42.8,87,30.30,5.0,Variable,1.2,-,N/A,,Overcast,0,2013-10-07 01:30:00
4:00 AM,46.4,42.8,87,30.30,5.0,SW,2.3,-,N/A,,Overcast,220,2013-10-07 02:00:00
4:30 AM,46.4,42.8,87,30.30,4.3,SW,2.3,-,N/A,,Overcast,220,2013-10-07 02:30:00
5:00 AM,46.4,42.8,87,30.33,5.0,West,2.3,-,N/A,,Overcast,260,2013-10-07 03:00:00
5:30 AM,46.4,42.8,87,30.33,5.0,Variable,1.2,-,N/A,,Overcast,0,2013-10-07 03:30:00
6:00 AM,48.2,42.8,82,30.33,5.6,Variable,2.3,-,N/A,,Overcast,0,2013-10-07 04:00:00
6:30 AM,46.4,42.8,87,30.33,5.6,NE,3.5,-,N/A,,Overcast,50,2013-10-07 04:30:00
7:00 AM,48.2,42.8,82,30.33,4.3,SE,3.5,-,N/A,,Overcast,130,2013-10-07 05:00:00
7:30 AM,48.2,42.8,82,30.33,4.3,SSE,3.5,-,N/A,,Overcast,150,2013-10-07 05:30:00
8:00 AM,47,44,86,30.38,4,South,2.2,,,,Mist,180,2013-10-07 06:00:00
8:00 AM,48.2,44.6,87,30.33,4.3,South,2.3,-,N/A,,Overcast,170,2013-10-07 06:00:00
8:30 AM,48.2,44.6,87,30.36,3.7,South,2.3,-,N/A,,Overcast,180,2013-10-07 06:30:00
9:00 AM,48.2,44.6,87,30.36,3.7,South,1.2,-,N/A,,Overcast,180,2013-10-07 07:00:00
9:30 AM,50.0,44.6,82,30.36,3.7,Calm,Calm,-,N/A,,Overcast,0,2013-10-07 07:30:00
10:00 AM,50.0,44.6,82,30.36,3.1,Calm,Calm,-,N/A,,Overcast,0,2013-10-07 08:00:00
10:30 AM,51.8,44.6,76,30.36,3.1,South,3.5,-,N/A,,Overcast,180,2013-10-07 08:30:00
11:00 AM,51.8,42.8,71,30.36,3.7,Variable,2.3,-,N/A,,Overcast,0,2013-10-07 09:00:00
11:30 AM,51.8,44.6,76,30.36,3.7,Variable,2.3,-,N/A,,Overcast,0,2013-10-07 09:30:00
12:00 PM,51.8,44.6,76,30.36,3.7,East,3.5,-,N/A,,Overcast,90,2013-10-07 10:00:00
12:30 PM,53.6,44.6,72,30.36,3.7,ENE,4.6,-,N/A,,Overcast,70,2013-10-07 10:30:00
1:00 PM,53.6,42.8,67,30.36,4.3,Variable,2.3,-,N/A,,Overcast,0,2013-10-07 11:00:00
1:30 PM,53.6,42.8,67,30.36,5.0,East,4.6,-,N/A,,Overcast,90,2013-10-07 11:30:00
2:00 PM,54,43,57,30.36,6,ESE,4.5,,,,Mist,110,2013-10-07 12:00:00
2:00 PM,53.6,42.8,67,30.36,5.6,East,3.5,-,N/A,,Overcast,90,2013-10-07 12:00:00
2:30 PM,55.4,42.8,63,30.33,6.2,ESE,3.5,-,N/A,,Overcast,120,2013-10-07 12:30:00
3:00 PM,55.4,42.8,63,30.33,6.2,ENE,3.5,-,N/A,,Overcast,70,2013-10-07 13:00:00
3:30 PM,55.4,44.6,67,30.33,6.2,East,4.6,-,N/A,,Overcast,90,2013-10-07 13:30:00
4:00 PM,53.6,44.6,72,30.33,6.2,ENE,5.8,-,N/A,,Overcast,70,2013-10-07 14:00:00
4:30 PM,53.6,44.6,72,30.33,5.0,East,5.8,-,N/A,,Overcast,80,2013-10-07 14:30:00
5:00 PM,53.6,44.6,72,30.33,4.3,ENE,5.8,-,N/A,,Overcast,60,2013-10-07 15:00:00
5:30 PM,53.6,44.6,72,30.33,5.0,ENE,8.1,-,N/A,,Overcast,60,2013-10-07 15:30:00
6:00 PM,53.6,44.6,72,30.33,5.0,ENE,8.1,-,N/A,,Overcast,60,2013-10-07 16:00:00
6:30 PM,51.8,44.6,76,30.33,5.0,ENE,8.1,-,N/A,,Mostly Cloudy,70,2013-10-07 16:30:00
7:00 PM,51.8,44.6,76,30.33,5.0,ENE,6.9,-,N/A,,Mostly Cloudy,70,2013-10-07 17:00:00
7:30 PM,51.8,44.6,76,30.33,5.0,East,5.8,-,N/A,,Mostly Cloudy,90,2013-10-07 17:30:00
8:00 PM,48,44,79,30.37,6,East,6.7,,,,Mist,80,2013-10-07 18:00:00
8:00 PM,48.2,42.8,82,30.33,5.6,East,5.8,-,N/A,,Partly Cloudy,90,2013-10-07 18:00:00
8:30 PM,48.2,44.6,87,30.33,5.0,East,4.6,-,N/A,,Partly Cloudy,90,2013-10-07 18:30:00
9:00 PM,48.2,44.6,87,30.33,5.0,ENE,4.6,-,N/A,,Partly Cloudy,60,2013-10-07 19:00:00
9:30 PM,48.2,44.6,87,30.33,4.3,NE,4.6,-,N/A,,Partly Cloudy,50,2013-10-07 19:30:00
10:00 PM,46.4,44.6,93,30.33,3.7,NE,4.6,-,N/A,,Unknown,40,2013-10-07 20:00:00
10:30 PM,46.4,44.6,93,30.33,3.1,Variable,1.2,-,N/A,,Mist,0,2013-10-07 20:30:00
10:44 PM,44.6,42.8,93,30.33,2.8,Calm,Calm,-,N/A,,Mist,0,2013-10-07 20:44:00
11:00 PM,44.6,42.8,93,30.33,2.8,Variable,2.3,-,N/A,Fog,Mist,0,2013-10-07 21:00:00
11:30 PM,44.6,44.6,100,30.33,1.2,Calm,Calm,-,N/A,Fog,Patches of Fog,0,2013-10-07 21:30:00